FW6795 Weather Reports


time (UTC)temp
C
wind
direction
speed
KPH
gust
KPH
rain 1hr
cm
rain 24hr
cm
rain mn
cm
humidity
%
barometer
mb
20260504100551 4 0 0.0 0.0 0.00 0.00 0.00 76 1016.4
20260504081552 5 0 0.0 0.0 0.00 0.00 0.00 69 1016.5
20260504081048 5 0 0.0 0.0 0.00 0.00 0.00 68 1016.6
20260504080548 5 0 0.0 0.0 0.00 0.00 0.00 69 1016.6
20260504050548 8 190 4.8 8.0 0.00 0.00 0.00 55 1016.9
20260504050120 8 190 4.8 8.0 0.00 0.00 0.00 56 1016.8
20260504045548 8 190 4.8 6.4 0.00 0.00 0.00 57 1016.9
20260504045048 8 190 3.2 4.8 0.00 0.00 0.00 57 1016.8
20260504044552 7 190 3.2 4.8 0.00 0.00 0.00 59 1016.8
20260504044048 7 190 3.2 6.4 0.00 0.00 0.00 59 1016.9
20260504043548 7 190 1.6 6.4 0.00 0.00 0.00 60 1016.7
20260504043059 6 190 0.0 1.6 0.00 0.00 0.00 62 1016.7
20260504042548 6 0 0.0 1.6 0.00 0.00 0.00 60 1016.6
20260504042047 6 0 0.0 1.6 0.00 0.00 0.00 60 1016.7
20260504041556 6 190 0.0 1.6 0.00 0.00 0.00 61 1016.6
20260504041047 6 0 0.0 3.2 0.00 0.00 0.00 63 1016.7
20260504040547 6 190 0.0 3.2 0.00 0.00 0.00 62 1016.8
20260504040105 6 190 1.6 3.2 0.00 0.00 0.00 62 1016.8
20260504035549 6 190 0.0 3.2 0.00 0.00 0.00 62 1016.9
20260504035049 5 190 0.0 1.6 0.00 0.00 0.00 62 1016.8
20260504034553 6 190 0.0 3.2 0.00 0.00 0.00 63 1016.9
20260504034047 6 190 0.0 3.2 0.00 0.00 0.00 60 1016.7
20260504033548 7 190 3.2 4.8 0.00 0.00 0.00 57 1016.7
20260504033057 7 190 1.6 4.8 0.00 0.00 0.00 55 1016.7
20260504032548 7 190 3.2 3.2 0.00 0.00 0.00 55 1016.7
20260504032049 7 190 1.6 4.8 0.00 0.00 0.00 55 1016.8
20260504031629 7 190 1.6 4.8 0.00 0.00 0.00 54 1016.7
20260504031048 7 190 1.6 3.2 0.00 0.00 0.00 54 1016.6
20260504030548 7 190 1.6 3.2 0.00 0.00 0.00 56 1016.7
20260504030104 7 190 0.0 1.6 0.00 0.00 0.00 56 1016.7
20260504025548 7 190 0.0 1.6 0.00 0.00 0.00 54 1016.9
20260504025051 7 190 0.0 1.6 0.00 0.00 0.00 55 1016.9
20260504024556 7 190 0.0 3.2 0.00 0.00 0.00 54 1017.0
20260504024048 7 0 1.6 4.8 0.00 0.00 0.00 54 1017.0
20260504023548 7 190 1.6 4.8 0.00 0.00 0.00 53 1017.1
20260504023059 7 190 1.6 8.0 0.00 0.00 0.00 51 1017.1
20260504022549 8 190 3.2 8.0 0.00 0.00 0.00 51 1017.0
20260504022047 7 190 3.2 4.8 0.00 0.00 0.00 51 1017.0
20260504021609 7 190 0.0 6.4 0.00 0.00 0.00 53 1016.8
20260504021050 7 0 0.0 6.4 0.00 0.00 0.00 52 1016.7
20260504020548 7 190 3.2 6.4 0.00 0.00 0.00 52 1016.6
20260504020108 7 190 1.6 6.4 0.00 0.00 0.00 52 1016.5
20260504015548 7 190 1.6 6.4 0.00 0.00 0.00 51 1016.8
20260504015048 7 190 1.6 4.8 0.00 0.00 0.00 51 1016.7
20260504014553 7 190 0.0 4.8 0.00 0.00 0.00 52 1016.6
20260504014047 7 190 0.0 3.2 0.00 0.00 0.00 51 1016.6
20260504013548 8 190 0.0 3.2 0.00 0.00 0.00 49 1016.5
20260504013054 8 0 0.0 1.6 0.00 0.00 0.00 49 1016.5
20260504012549 8 190 0.0 1.6 0.00 0.00 0.00 49 1016.5
20260504012048 8 0 0.0 1.6 0.00 0.00 0.00 49 1016.3
20260504011556 8 0 0.0 1.6 0.00 0.00 0.00 48 1016.2
20260504011048 9 0 0.0 1.6 0.00 0.00 0.00 46 1016.2
20260504010547 9 0 0.0 1.6 0.00 0.00 0.00 44 1016.2
20260504010058 10 190 0.0 3.2 0.00 0.00 0.00 43 1015.9
20260504005547 10 190 1.6 3.2 0.00 0.00 0.00 43 1016.0
20260504005047 10 190 0.0 3.2 0.00 0.00 0.00 43 1016.0
20260504004555 10 0 0.0 3.2 0.00 0.00 0.00 44 1016.0
20260504004049 10 190 0.0 3.2 0.00 0.00 0.00 43 1015.9
20260504003548 10 0 0.0 0.0 0.00 0.00 0.00 43 1015.8
20260504003049 10 0 0.0 1.6 0.00 0.00 0.00 42 1015.7
20260504002548 11 0 0.0 3.2 0.00 0.00 0.00 40 1015.8
20260504002048 11 190 1.6 8.0 0.00 0.00 0.00 39 1015.9
20260504001606 11 190 3.2 8.0 0.00 0.00 0.00 39 1015.8
20260504001048 12 190 3.2 12.9 0.00 0.00 0.00 37 1015.9
20260504000547 12 190 4.8 12.9 0.00 0.00 0.00 37 1016.0
20260504000051 12 190 4.8 8.0 0.00 0.00 0.00 38 1015.9
20260503235547 12 190 4.8 11.3 0.00 0.00 0.00 37 1015.9
20260503235050 13 190 4.8 11.3 0.00 0.00 0.00 36 1015.8
20260503234549 13 190 3.2 12.9 0.00 0.00 0.00 36 1015.8
20260503234048 13 190 6.4 12.9 0.00 0.00 0.00 35 1015.7
20260503233547 13 190 6.4 12.9 0.00 0.00 0.00 35 1015.7
20260503233047 13 190 6.4 12.9 0.00 0.00 0.00 34 1015.6
20260503232548 13 190 6.4 12.9 0.00 0.00 0.00 34 1015.6
20260503232048 13 190 6.4 20.9 0.00 0.00 0.00 34 1015.5
20260503231554 13 190 12.9 20.9 0.00 0.00 0.00 34 1015.5
20260503231048 13 190 9.7 19.3 0.00 0.00 0.00 32 1015.4
20260503230553 13 190 8.0 20.9 0.00 0.00 0.00 34 1015.4
20260503230051 14 190 9.7 20.9 0.00 0.00 0.00 32 1015.5
20260503225548 14 190 9.7 19.3 0.00 0.00 0.00 32 1015.5
20260503225052 14 190 9.7 17.7 0.00 0.00 0.00 32 1015.7
20260503224551 14 190 9.7 17.7 0.00 0.00 0.00 31 1015.5
20260503224048 14 190 9.7 20.9 0.00 0.00 0.00 30 1015.6
20260503223548 14 190 11.3 20.9 0.00 0.00 0.00 30 1015.6
20260503223051 14 190 12.9 20.9 0.00 0.00 0.00 28 1015.5
20260503222548 14 190 11.3 20.9 0.00 0.00 0.00 31 1015.6
20260503222047 14 190 12.9 25.7 0.00 0.00 0.00 31 1015.6
20260503221549 14 190 12.9 25.7 0.00 0.00 0.00 30 1015.7
20260503221049 14 190 14.5 25.7 0.00 0.00 0.00 30 1015.7
20260503220548 14 190 11.3 20.9 0.00 0.00 0.00 30 1015.8
20260503220050 14 190 6.4 17.7 0.00 0.00 0.00 31 1015.8
20260503215547 14 190 9.7 19.3 0.00 0.00 0.00 30 1015.8
20260503215048 14 190 9.7 19.3 0.00 0.00 0.00 33 1015.8
20260503214555 14 190 8.0 17.7 0.00 0.00 0.00 33 1015.8
20260503214050 14 190 9.7 17.7 0.00 0.00 0.00 33 1015.9
20260503213547 13 190 8.0 17.7 0.00 0.00 0.00 31 1016.0
20260503213123 14 190 8.0 12.9 0.00 0.00 0.00 32 1015.9
20260503212548 13 190 4.8 17.7 0.00 0.00 0.00 32 1016.0
20260503212050 13 190 6.4 17.7 0.00 0.00 0.00 33 1016.0
20260503211617 13 190 8.0 17.7 0.00 0.00 0.00 33 1016.0
20260503211049 13 190 8.0 22.5 0.00 0.00 0.00 32 1016.1
20260503210548 13 190 6.4 22.5 0.00 0.00 0.00 35 1016.0
20260503210052 13 190 9.7 19.3 0.00 0.00 0.00 31 1016.0
20260503205548 13 190 4.8 17.7 0.00 0.00 0.00 34 1016.0
20260503205048 13 190 12.9 20.9 0.00 0.00 0.00 32 1016.0
20260503204603 13 190 11.3 20.9 0.00 0.00 0.00 34 1016.0
20260503204047 13 190 6.4 20.9 0.00 0.00 0.00 32 1016.1
20260503203547 13 190 4.8 20.9 0.00 0.00 0.00 33 1016.2
20260503203050 13 190 11.3 20.9 0.00 0.00 0.00 32 1016.3
20260503202549 13 190 4.8 19.3 0.00 0.00 0.00 35 1016.2
20260503202051 13 190 6.4 14.5 0.00 0.00 0.00 35 1016.2
20260503201552 12 190 4.8 17.7 0.00 0.00 0.00 36 1016.1
20260503201047 13 190 8.0 22.5 0.00 0.00 0.00 34 1016.3
20260503200548 13 190 8.0 22.5 0.00 0.00 0.00 36 1016.3
20260503200052 12 190 11.3 22.5 0.00 0.00 0.00 34 1016.4
20260503195548 13 190 12.9 17.7 0.00 0.00 0.00 33 1016.5
20260503195047 13 190 3.2 22.5 0.00 0.00 0.00 35 1016.5
20260503194551 12 190 4.8 25.7 0.00 0.00 0.00 37 1016.7
20260503194047 12 190 14.5 32.2 0.00 0.00 0.00 35 1016.8
20260503193547 12 190 12.9 32.2 0.00 0.00 0.00 35 1016.9
20260503193049 12 190 11.3 20.9 0.00 0.00 0.00 35 1016.9
20260503192549 12 190 11.3 20.9 0.00 0.00 0.00 36 1017.0
20260503192047 12 190 12.9 27.4 0.00 0.00 0.00 37 1017.0
20260503191602 12 190 12.9 27.4 0.00 0.00 0.00 38 1017.0
20260503191048 12 190 6.4 22.5 0.00 0.00 0.00 36 1017.0
20260503190548 12 190 4.8 22.5 0.00 0.00 0.00 37 1017.2
20260503190052 11 190 9.7 19.3 0.00 0.00 0.00 37 1017.2
20260503185547 11 190 4.8 30.6 0.00 0.00 0.00 39 1017.3
20260503185047 11 190 8.0 30.6 0.00 0.00 0.00 38 1017.3
20260503184607 11 190 12.9 33.8 0.00 0.00 0.00 38 1017.3
20260503184047 11 190 9.7 33.8 0.00 0.00 0.00 35 1017.6
20260503183549 11 190 16.1 33.8 0.00 0.00 0.00 35 1017.6
20260503183049 11 190 6.4 32.2 0.00 0.00 0.00 40 1017.6
20260503182548 11 190 11.3 32.2 0.00 0.00 0.00 39 1017.9
20260503182048 11 190 14.5 32.2 0.00 0.00 0.00 39 1017.9
20260503181554 10 190 17.7 35.4 0.00 0.00 0.00 43 1017.9
20260503181048 10 190 12.9 35.4 0.00 0.00 0.00 40 1017.9
20260503180550 11 190 12.9 35.4 0.00 0.00 0.00 42 1017.9
20260503180053 10 190 9.7 19.3 0.00 0.00 0.00 43 1017.9
20260503175550 10 190 6.4 24.1 0.00 0.00 0.00 43 1018.0
20260503175049 10 190 12.9 24.1 0.00 0.00 0.00 40 1018.0
20260503174610 10 190 12.9 20.9 0.00 0.00 0.00 41 1017.9
20260503174049 10 190 9.7 25.7 0.00 0.00 0.00 43 1017.9
20260503173551 9 190 8.0 30.6 0.00 0.00 0.00 42 1018.2
20260503173114 10 190 11.3 30.6 0.00 0.00 0.00 42 1018.2
20260503172549 9 190 11.3 30.6 0.00 0.00 0.00 42 1018.2
20260503172053 9 190 8.0 20.9 0.00 0.00 0.00 45 1018.4
20260503171553 9 190 9.7 33.8 0.00 0.00 0.00 45 1018.4
20260503171050 9 190 9.7 37.0 0.00 0.00 0.00 44 1018.5
20260503170549 8 190 16.1 37.0 0.00 0.00 0.00 43 1018.5
20260503150549 6 190 6.4 19.3 0.00 0.00 0.00 55 1019.3
20260503131049 3 190 12.9 32.2 0.00 0.00 0.00 65 1018.7
20260503130549 3 190 12.9 32.2 0.00 0.00 0.00 66 1018.7
20260503110547 1 0 1.6 8.0 0.00 0.00 0.00 80 1017.5